Temperature
-5 -5 -5 -5 -5 -4 -5 -5 -5 -5 -5 -5 -5 -5 -5 -5 -4 -4 -4 -4 -4 -3 -3 -2 -1 -0 0 1 2 3 3 4 4 4 4 4 5 5 5 5 5 5 5 5
-5 -4 -5 -5 -5 -5 -5 -5 -5 -5 -5 -6 -5 -5 -5 -5 -5 -5 -5 -5 -4 -4 -3 -3 -2 -1 -0 0 1 2 2 3 3 3 3 4 4 4 4 4 4 4 4 4
-6 -6 -5 -6 -6 -6 -6 -6 -6 -6 -6 -6 -6 -6 -6 -6 -5 -5 -5 -5 -5 -4 -4 -3 -2 -2 -1 -0 0 1 1 2 2 2 2 3 3 3 3 3 4 4 4 4
-7 -7 -7 -6 -6 -7 -7 -7 -7 -7 -7 -7 -7 -7 -6 -6 -6 -6 -6 -5 -5 -5 -4 -3 -3 -2 -1 -1 -0 0 0 1 1 1 2 2 2 2 2 3 3 3 3 3
-8 -8 -7 -6 -7 -7 -7 -7 -7 -8 -7 -7 -7 -7 -6 -6 -6 -6 -6 -5 -5 -5 -4 -3 -3 -2 -2 -2 -1 -1 -0 -0 0 0 1 1 1 1 2 2 2 2 2 3
-8 -8 -7 -7 -7 -7 -7 -8 -8 -8 -8 -8 -8 -7 -7 -7 -7 -6 -6 -5 -5 -5 -4 -4 -3 -3 -3 -2 -2 -1 -1 -1 -1 -0 -0 0 0 1 1 1 1 1 1 2
-9 -9 -8 -8 -8 -7 -8 -8 -8 -8 -8 -9 -9 -8 -8 -8 -7 -7 -6 -6 -5 -5 -5 -4 -4 -3 -3 -3 -3 -2 -2 -1 -1 -1 -1 -0 -0 0 0 1 1 1 1 1
-10 -9 -8 -8 -9 -9 -8 -8 -8 -9 -9 -9 -9 -9 -8 -8 -7 -7 -6 -6 -6 -5 -5 -5 -4 -4 -4 -3 -3 -3 -2 -2 -2 -1 -1 -1 -1 -0 -0 -0 0 0 0 0
-10 -8 -8 -8 -8 -8 -8 -9 -9 -9 -9 -9 -9 -9 -8 -8 -7 -7 -7 -7 -6 -6 -5 -5 -5 -4 -4 -4 -3 -3 -3 -2 -2 -2 -2 -1 -1 -1 -1 -1 -1 -0 -0 -0
-10 -10 -9 -8 -8 -8 -9 -9 -9 -9 -9 -9 -9 -9 -8 -8 -8 -7 -7 -7 -7 -6 -6 -6 -5 -5 -5 -4 -4 -3 -3 -3 -3 -2 -2 -2 -2 -2 -2 -1 -1 -1 -1 -1
-11 -10 -9 -8 -8 -9 -9 -9 -9 -9 -9 -9 -9 -9 -8 -8 -8 -8 -8 -7 -7 -7 -7 -6 -6 -5 -5 -5 -4 -4 -4 -3 -3 -3 -3 -2 -2 -2 -2 -2 -2 -2 -1 -1
-10 -9 -10 -9 -8 -9 -9 -9 -9 -9 -9 -9 -9 -9 -9 -9 -8 -8 -8 -8 -7 -7 -7 -7 -6 -6 -6 -5 -5 -5 -4 -4 -4 -3 -3 -3 -3 -3 -3 -3 -2 -2 -2 -2
-9 -9 -9 -9 -9 -9 -9 -9 -9 -9 -9 -9 -9 -9 -9 -9 -9 -8 -8 -8 -8 -8 -7 -7 -7 -6 -6 -6 -6 -5 -5 -5 -5 -4 -4 -4 -4 -4 -4 -3 -3 -3 -3 -3
-9 -9 -9 -9 -9 -9 -9 -9 -9 -9 -9 -9 -9 -9 -9 -9 -9 -9 -8 -8 -8 -8 -8 -7 -7 -7 -7 -6 -6 -6 -6 -6 -5 -5 -5 -4 -4 -4 -4 -4 -4 -3 -3 -3
-9 -9 -9 -10 -10 -10 -10 -10 -10 -10 -10 -10 -10 -10 -10 -9 -9 -9 -9 -9 -8 -8 -8 -8 -7 -7 -7 -7 -7 -6 -6 -6 -6 -5 -5 -5 -5 -5 -5 -4 -4 -4 -4 -4
-9 -9 -10 -10 -10 -10 -10 -10 -10 -10 -10 -10 -10 -10 -10 -10 -10 -9 -9 -9 -9 -9 -8 -8 -8 -8 -8 -7 -7 -7 -7 -6 -6 -6 -6 -6 -5 -5 -5 -5 -5 -5 -5 -4
-10 -10 -10 -10 -10 -10 -10 -10 -11 -11 -11 -10 -10 -10 -10 -10 -10 -10 -9 -9 -9 -9 -9 -9 -8 -8 -8 -8 -7 -7 -7 -7 -7 -6 -6 -6 -6 -6 -6 -5 -5 -5 -5 -5
-9 -10 -10 -10 -10 -10 -10 -10 -11 -11 -11 -11 -10 -10 -10 -10 -10 -10 -10 -10 -9 -9 -9 -9 -9 -9 -8 -8 -8 -8 -8 -7 -7 -7 -7 -6 -6 -6 -6 -6 -6 -6 -5 -5
-10 -10 -10 -10 -11 -11 -11 -11 -11 -11 -11 -11 -10 -10 -10 -10 -10 -10 -10 -10 -10 -10 -9 -9 -9 -9 -9 -9 -8 -8 -8 -8 -7 -7 -7 -7 -7 -7 -6 -6 -6 -6 -6 -6
-10 -10 -10 -10 -11 -11 -11 -11 -11 -11 -11 -11 -11 -11 -11 -11 -11 -11 -10 -10 -10 -10 -10 -10 -10 -9 -9 -9 -9 -9 -8 -8 -8 -8 -8 -7 -7 -7 -7 -7 -7 -7 -7 -7
-10 -10 -10 -11 -11 -11 -11 -11 -11 -11 -11 -11 -11 -11 -11 -11 -11 -11 -11 -11 -10 -10 -10 -10 -10 -10 -10 -10 -9 -9 -9 -9 -8 -8 -8 -8 -8 -8 -8 -7 -7 -7 -7 -7
-10 -11 -11 -11 -11 -11 -11 -11 -11 -11 -11 -11 -11 -11 -11 -11 -11 -11 -11 -11 -11 -11 -11 -10 -10 -10 -10 -10 -10 -10 -9 -9 -9 -9 -8 -8 -8 -8 -8 -8 -8 -8 -8 -7
-11 -11 -11 -11 -11 -11 -11 -11 -12 -12 -12 -12 -12 -12 -12 -12 -12 -12 -11 -11 -11 -11 -11 -11 -10 -10 -10 -10 -10 -10 -10 -9 -9 -9 -9 -9 -9 -9 -8 -8 -8 -8 -8 -8
-11 -11 -11 -12 -12 -12 -12 -12 -12 -12 -12 -12 -12 -12 -12 -12 -12 -12 -12 -12 -12 -11 -11 -11 -11 -11 -11 -10 -10 -10 -10 -10 -10 -10 -9 -9 -9 -9 -9 -9 -8 -8 -8 -8
-11 -11 -12 -12 -12 -12 -12 -12 -12 -12 -12 -12 -12 -12 -13 -13 -12 -12 -12 -12 -12 -11 -11 -11 -11 -11 -11 -11 -11 -10 -10 -10 -10 -10 -10 -10 -9 -9 -9 -9 -9 -9 -8 -8
-11 -12 -12 -12 -12 -12 -12 -12 -12 -12 -13 -12 -12 -12 -13 -13 -13 -12 -12 -12 -12 -12 -12 -11 -11 -11 -11 -11 -11 -11 -11 -11 -10 -10 -10 -10 -10 -9 -9 -9 -9 -9 -9 -9
-12 -12 -12 -12 -12 -13 -13 -13 -13 -13 -13 -13 -13 -13 -13 -13 -13 -13 -12 -12 -12 -12 -12 -12 -12 -12 -11 -11 -11 -11 -11 -11 -11 -11 -10 -10 -10 -10 -10 -10 -9 -9 -9 -9
Wind_Speed
3 4 3 5 7 6 2 0 2 4 4 7 9 9 8 8 8 8 8 9 8 7 7 7 6 6 5 5 4 2 1 1 0 1 1 1 2 2 2 3 3 3 3 3
3 3 3 5 8 6 4 2 1 4 5 7 8 7 7 7 8 8 8 9 8 8 8 8 7 7 6 5 4 2 1 1 1 1 0 1 2 2 2 2 2 3 4 4
3 5 3 4 5 4 3 3 2 3 5 9 9 9 8 8 8 8 9 9 8 8 8 7 7 7 6 5 4 2 2 1 1 0 0 1 1 2 2 2 2 3 3 4
1 4 1 3 1 3 3 3 3 5 8 9 9 9 6 6 7 8 9 9 8 8 8 7 7 6 6 5 4 3 2 2 1 1 0 1 1 2 2 2 3 3 3 4
1 1 4 3 3 4 3 4 4 6 9 10 9 6 4 6 7 7 7 7 7 7 6 6 6 6 5 5 4 4 3 3 2 1 0 1 1 1 2 2 2 3 3 4
2 1 3 4 5 6 1 4 5 6 8 10 9 5 6 9 10 9 8 7 6 6 6 6 6 6 5 5 4 4 4 3 2 1 0 1 1 1 1 2 3 3 3 3
1 2 5 4 6 3 1 4 7 6 7 7 5 5 8 11 10 8 8 7 6 6 6 6 6 6 5 5 5 5 4 3 2 2 1 0 1 1 2 2 3 3 4 3
1 1 5 3 3 0 4 5 6 6 6 7 8 8 9 10 10 9 8 8 7 7 7 7 6 6 6 6 6 5 4 3 2 2 1 1 2 2 2 3 4 4 4 3
4 4 4 1 2 3 3 4 5 5 7 7 8 8 9 9 8 8 8 7 7 7 7 7 7 6 5 6 6 5 4 3 2 2 2 1 2 2 2 3 3 3 3 3
3 5 5 5 4 4 4 4 6 6 7 6 7 8 8 8 8 8 7 7 6 6 7 8 8 7 6 6 6 5 4 3 2 2 2 2 1 2 2 2 2 3 3 3
4 6 6 5 4 5 6 6 7 7 6 5 5 6 6 6 7 7 7 7 6 6 6 8 8 7 7 6 6 5 4 3 2 2 2 2 2 1 1 1 2 3 3 3
5 4 3 6 6 5 6 7 7 7 7 6 5 5 6 6 6 6 6 6 7 7 7 8 7 7 7 6 5 4 4 3 2 2 1 1 2 3 4 2 2 2 2 2
5 3 4 6 6 4 4 6 6 6 5 6 5 5 5 5 6 6 6 7 7 7 7 7 7 7 7 6 5 4 3 3 2 1 1 1 1 1 2 3 4 2 2 2
3 2 3 4 4 5 5 6 5 5 5 5 5 5 5 5 6 7 7 7 6 6 6 7 7 7 7 6 5 4 3 4 3 1 1 0 0 1 1 1 1 1 1 2
3 3 4 4 4 5 5 5 5 6 6 6 5 6 6 6 7 7 7 7 6 6 7 7 7 8 8 6 5 4 3 2 2 1 1 1 0 0 1 1 1 0 1 1
4 3 3 3 4 5 5 5 5 6 6 6 6 6 6 6 6 6 7 6 6 7 7 7 7 7 7 6 5 4 3 4 3 2 1 1 1 1 1 1 1 1 1 1
2 3 3 4 5 5 4 4 5 6 6 6 6 7 6 6 6 7 7 7 6 6 6 6 7 7 7 6 5 3 3 3 4 3 1 1 0 0 0 1 1 1 1 1
4 4 4 4 4 5 5 5 5 5 6 6 6 6 6 6 6 7 7 7 7 7 7 7 7 7 6 6 5 3 3 3 2 2 2 1 1 1 0 0 0 1 1 1
2 3 3 3 4 4 4 5 5 5 6 5 5 5 5 5 6 6 6 6 7 7 8 8 11 8 6 6 6 3 3 3 3 2 2 2 2 1 1 0 1 1 1 1
2 2 3 3 3 3 4 5 5 5 5 5 5 5 5 6 5 6 6 5 5 5 7 8 7 6 5 5 6 3 3 3 2 2 2 2 2 2 1 1 1 1 1 1
3 3 3 3 4 4 4 4 4 5 5 4 4 5 6 6 5 5 5 6 6 7 7 9 6 5 5 5 5 3 3 3 3 2 2 2 2 2 2 2 2 2 2 2
3 3 3 4 4 4 4 4 4 4 5 4 5 5 6 6 6 5 5 4 6 10 7 5 5 7 7 6 3 3 3 3 3 2 2 2 2 2 2 2 2 2 2 2
3 3 3 4 4 5 5 4 4 4 4 5 5 5 5 6 5 5 6 5 5 9 7 5 8 10 9 5 3 3 3 3 3 3 3 3 2 3 3 3 3 3 2 2
3 3 3 3 3 3 4 5 5 4 4 5 5 5 5 5 5 4 5 8 10 10 6 8 11 10 8 4 3 3 3 3 3 3 3 3 3 3 3 3 3 3 3 3
3 3 2 3 3 4 5 5 5 4 4 4 5 5 4 4 4 5 5 6 9 9 6 8 10 10 6 3 3 4 3 4 4 3 3 3 3 3 3 3 3 3 3 3
2 3 3 4 4 4 4 3 4 4 4 5 5 4 4 4 5 5 5 5 7 8 6 5 5 6 4 4 4 4 4 4 5 4 3 3 3 3 3 4 4 3 3 4
2 2 2 3 3 3 3 3 4 4 4 5 6 5 5 5 4 5 5 5 5 5 5 5 4 4 4 4 4 4 4 4 4 4 4 3 3 4 4 4 4 4 4 4
Wind_Direction
252 285 349 354 345 359 30 234 230 281 291 321 331 331 337 346 352 359 2 2 4 2 358 357 358 357 356 355 355 2 24 40 294 296 232 178 175 176 183 186 192 187 181 185
298 310 4 4 356 357 358 357 299 318 306 325 327 338 348 352 354 358 357 354 356 358 357 354 351 348 348 347 347 359 5 350 355 5 159 182 180 170 169 181 184 171 177 178
294 321 347 340 345 355 5 6 351 315 313 332 340 342 341 344 351 352 351 348 351 351 347 344 340 338 337 335 340 356 358 2 17 48 172 189 173 155 170 181 172 170 172 170
311 21 320 261 29 359 337 344 357 335 330 333 328 318 327 350 352 345 343 343 343 343 341 339 338 339 338 342 351 360 356 355 4 11 203 148 147 162 171 158 154 156 157 154
88 304 279 302 352 350 321 318 351 338 333 337 336 337 344 359 355 337 331 331 332 333 333 335 341 343 345 350 355 1 356 346 338 344 126 145 149 157 157 144 142 140 141 141
99 142 263 282 316 320 280 307 345 344 331 335 348 343 326 341 339 334 335 336 339 339 344 345 346 347 352 349 352 345 337 333 333 339 339 175 178 165 143 144 144 131 123 130
162 231 271 294 320 356 102 289 324 326 322 326 322 288 302 319 326 329 334 339 346 346 350 347 346 352 355 352 342 330 329 333 343 354 336 182 141 128 127 131 126 124 120 116
146 239 275 325 17 145 254 300 315 316 314 311 307 307 313 321 325 333 339 346 351 351 348 348 353 357 352 346 338 338 341 347 358 9 8 54 108 112 119 128 127 125 121 112
201 227 276 285 253 276 303 306 308 310 310 309 310 312 318 322 328 333 337 343 349 349 346 349 354 358 351 339 339 347 357 2 11 17 23 49 103 120 119 122 133 138 136 131
266 274 285 294 294 311 315 305 307 308 308 308 307 309 316 323 330 335 338 343 347 350 350 347 350 352 346 337 343 356 3 2 16 35 37 47 79 114 130 143 145 145 147 144
269 288 313 305 291 299 313 316 318 320 316 308 308 311 316 323 327 332 337 341 346 347 345 343 345 347 346 345 350 358 3 6 17 32 52 61 64 70 119 145 168 163 168 169
243 257 249 280 297 304 310 314 318 323 324 327 321 317 323 324 328 333 337 342 346 347 344 341 343 343 345 347 353 358 360 2 8 20 46 75 87 58 42 63 82 111 151 160
242 267 255 278 299 308 306 310 317 320 319 325 331 331 333 331 333 337 339 343 343 339 338 338 340 341 343 347 349 355 353 345 349 4 26 69 119 117 80 46 53 70 103 136
261 275 286 291 297 313 315 317 324 330 332 330 330 337 338 340 339 341 338 334 335 337 339 340 342 340 339 343 347 350 347 338 337 336 338 346 164 155 149 140 98 39 46 112
278 248 258 289 310 321 327 336 342 340 340 341 342 342 341 340 336 332 331 333 340 346 344 344 343 339 339 341 344 343 341 335 330 334 340 341 56 114 117 120 132 116 67 95
296 298 290 302 311 322 332 335 331 327 331 332 335 334 332 329 325 327 334 341 346 342 339 339 337 334 337 342 342 338 335 338 343 343 358 19 46 88 111 135 164 179 208 216
278 293 295 303 306 312 314 310 307 311 319 321 321 323 329 331 333 334 336 339 336 329 331 334 331 334 339 342 340 334 334 337 348 352 360 2 11 337 235 211 208 212 248 241
236 252 259 266 280 295 304 307 306 308 309 307 315 323 327 328 324 322 325 332 338 338 339 336 334 338 341 342 341 337 339 339 346 350 350 347 343 334 316 288 250 234 254 263
268 272 277 280 279 283 291 298 302 303 308 316 320 318 314 313 314 318 326 335 338 335 334 335 338 343 342 342 345 344 345 345 346 346 347 347 351 352 346 322 279 261 252 255
288 295 294 296 298 293 295 299 302 306 311 317 317 319 320 319 320 323 327 321 313 309 314 323 329 330 331 336 345 342 340 339 340 339 341 342 336 328 314 300 287 276 264 255
291 299 301 302 303 302 298 299 302 303 307 312 309 307 309 313 318 319 320 318 317 319 322 327 332 328 329 333 337 335 333 333 335 333 328 324 319 312 306 302 295 284 273 268
286 291 294 298 302 304 306 302 296 298 305 306 305 306 310 314 316 314 302 294 308 320 325 320 322 326 331 332 331 329 326 324 322 318 312 308 302 299 299 300 292 285 279 274
274 279 289 294 296 298 307 305 299 298 298 299 301 301 299 299 301 303 308 309 312 318 324 316 320 326 331 340 338 329 325 322 316 311 306 302 298 292 289 291 290 285 278 277
271 279 285 291 299 304 306 305 304 300 292 290 289 288 292 300 301 287 287 306 316 318 319 317 324 328 334 344 333 325 319 316 311 304 301 299 296 293 288 288 289 291 288 283
264 271 284 296 295 290 292 302 307 305 304 301 299 297 292 284 285 297 300 304 311 317 316 319 324 328 335 327 319 312 308 303 300 298 292 291 289 287 287 287 287 290 290 288
261 267 270 267 268 278 290 297 299 302 306 307 308 306 302 299 293 295 300 304 306 313 316 314 317 320 320 314 310 307 304 305 308 309 305 299 294 292 291 292 292 289 287 286
273 280 287 291 289 288 289 287 288 293 295 296 300 303 305 306 305 305 306 309 311 312 312 313 314 314 315 314 311 309 306 304 302 302 301 296 292 290 290 289 289 289 287 285
Height
1503 1499 1498 1496 1494 1491 1491 1491 1492 1490 1488 1486 1484 1482 1478 1475 1472 1469 1467 1465 1463 1462 1461 1461 1461 1461 1461 1462 1464 1465 1467 1469 1472 1474 1476 1478 1481 1483 1485 1488 1490 1492 1494 1497
1502 1498 1497 1497 1496 1494 1493 1493 1492 1490 1489 1487 1485 1482 1479 1476 1473 1471 1468 1467 1465 1463 1462 1461 1460 1460 1461 1461 1462 1463 1465 1467 1469 1471 1473 1475 1477 1479 1481 1483 1485 1488 1490 1492
1506 1502 1498 1502 1501 1499 1498 1497 1496 1493 1492 1488 1484 1481 1479 1476 1474 1472 1470 1468 1465 1463 1462 1461 1461 1460 1460 1460 1461 1462 1463 1464 1466 1467 1469 1471 1473 1475 1477 1479 1481 1483 1486 1488
1509 1508 1511 1505 1502 1501 1499 1497 1496 1494 1491 1489 1485 1481 1478 1476 1474 1472 1470 1468 1466 1464 1462 1461 1460 1460 1460 1459 1459 1460 1461 1462 1463 1464 1466 1468 1470 1472 1474 1476 1477 1480 1482 1485
1513 1514 1510 1504 1502 1502 1501 1497 1495 1494 1491 1487 1484 1479 1477 1475 1474 1472 1470 1468 1466 1464 1462 1461 1460 1459 1458 1458 1458 1458 1458 1459 1461 1462 1463 1465 1467 1468 1471 1472 1474 1476 1479 1481
1516 1514 1511 1506 1503 1500 1501 1499 1495 1494 1491 1488 1484 1482 1479 1476 1473 1471 1469 1467 1465 1463 1460 1459 1458 1457 1457 1456 1456 1456 1457 1458 1459 1460 1461 1462 1464 1466 1468 1469 1471 1473 1475 1478
1519 1519 1511 1506 1502 1501 1506 1502 1496 1493 1491 1489 1487 1485 1481 1476 1473 1470 1467 1465 1463 1461 1459 1458 1457 1456 1455 1455 1455 1455 1455 1456 1457 1457 1459 1460 1461 1463 1465 1467 1468 1470 1472 1475
1521 1520 1514 1504 1502 1504 1502 1498 1495 1492 1490 1488 1485 1481 1478 1475 1472 1469 1466 1464 1462 1460 1458 1457 1456 1455 1454 1453 1453 1453 1453 1454 1454 1455 1456 1457 1459 1460 1462 1464 1465 1467 1469 1471
1517 1513 1507 1504 1502 1501 1499 1496 1493 1491 1488 1485 1482 1479 1476 1473 1470 1468 1465 1463 1461 1459 1457 1456 1455 1454 1453 1452 1452 1451 1451 1451 1452 1453 1454 1455 1456 1457 1459 1461 1462 1464 1466 1468
1513 1507 1504 1502 1501 1499 1497 1495 1492 1489 1486 1483 1480 1477 1474 1471 1469 1466 1464 1462 1460 1458 1456 1455 1454 1453 1452 1451 1450 1450 1449 1450 1450 1451 1452 1453 1454 1455 1457 1458 1460 1462 1464 1465
1511 1506 1503 1500 1499 1497 1495 1492 1489 1486 1483 1481 1478 1476 1473 1471 1468 1466 1464 1462 1460 1458 1456 1454 1453 1452 1451 1450 1449 1448 1448 1448 1449 1449 1450 1451 1452 1454 1455 1457 1459 1460 1461 1463
1507 1503 1503 1499 1497 1495 1493 1490 1487 1484 1481 1479 1477 1475 1473 1470 1468 1466 1464 1462 1459 1458 1456 1454 1453 1451 1450 1449 1449 1448 1447 1447 1447 1448 1449 1450 1450 1452 1453 1455 1457 1458 1459 1461
1502 1501 1500 1498 1496 1494 1491 1489 1486 1483 1480 1478 1476 1474 1471 1469 1467 1465 1463 1461 1459 1457 1456 1454 1452 1450 1449 1449 1448 1447 1446 1446 1446 1447 1447 1448 1449 1450 1451 1453 1454 1455 1457 1458
1500 1499 1497 1495 1494 1492 1490 1487 1485 1482 1480 1477 1475 1473 1471 1468 1466 1464 1462 1461 1459 1457 1455 1453 1451 1450 1449 1448 1447 1446 1446 1446 1446 1446 1446 1447 1448 1449 1449 1450 1451 1452 1454 1456
1498 1497 1496 1494 1492 1490 1488 1485 1483 1480 1478 1476 1474 1472 1470 1468 1465 1464 1462 1460 1458 1456 1454 1452 1451 1449 1448 1447 1446 1446 1445 1445 1445 1445 1445 1445 1446 1447 1447 1448 1449 1450 1451 1453
1495 1494 1493 1492 1490 1488 1486 1484 1481 1479 1477 1475 1473 1471 1469 1467 1465 1463 1461 1459 1457 1455 1453 1452 1450 1449 1448 1446 1446 1445 1445 1444 1444 1444 1444 1444 1444 1445 1445 1446 1447 1448 1449 1450
1493 1491 1490 1489 1487 1486 1484 1483 1481 1479 1476 1474 1472 1470 1468 1466 1464 1462 1460 1459 1457 1455 1453 1451 1449 1448 1447 1446 1445 1444 1443 1443 1443 1442 1442 1442 1443 1443 1444 1444 1445 1445 1446 1447
1491 1490 1489 1488 1486 1484 1483 1481 1479 1477 1475 1473 1471 1469 1467 1465 1463 1461 1459 1457 1456 1454 1452 1451 1449 1448 1446 1445 1444 1443 1442 1442 1441 1441 1441 1441 1441 1441 1442 1442 1442 1443 1443 1445
1489 1488 1487 1486 1485 1483 1481 1479 1477 1476 1474 1472 1470 1468 1466 1464 1462 1460 1458 1456 1454 1452 1451 1450 1448 1447 1445 1444 1443 1442 1441 1440 1440 1439 1439 1439 1439 1439 1439 1440 1440 1440 1441 1441
1487 1486 1485 1484 1482 1481 1479 1477 1476 1474 1472 1470 1468 1466 1465 1463 1461 1459 1457 1455 1454 1452 1450 1449 1447 1445 1444 1443 1442 1441 1440 1439 1438 1438 1437 1437 1437 1437 1437 1437 1438 1438 1438 1439
1485 1484 1482 1481 1480 1479 1477 1475 1473 1472 1470 1468 1467 1465 1463 1461 1460 1458 1455 1453 1452 1451 1449 1447 1446 1444 1443 1442 1441 1439 1439 1438 1437 1437 1436 1436 1435 1435 1435 1435 1435 1436 1436 1436
1482 1481 1480 1479 1477 1476 1475 1473 1471 1469 1468 1466 1465 1463 1461 1459 1458 1456 1454 1453 1451 1449 1447 1446 1444 1443 1442 1441 1439 1438 1437 1436 1436 1435 1434 1434 1434 1433 1433 1433 1433 1433 1433 1433
1480 1479 1478 1476 1475 1474 1472 1471 1469 1467 1466 1464 1462 1461 1459 1457 1456 1454 1451 1451 1449 1447 1446 1444 1443 1442 1440 1439 1438 1437 1436 1435 1434 1433 1433 1432 1432 1431 1431 1431 1431 1431 1431 1431
1477 1476 1475 1474 1473 1471 1469 1468 1467 1465 1463 1462 1460 1459 1457 1455 1453 1452 1450 1449 1447 1446 1444 1443 1441 1440 1439 1437 1436 1435 1434 1433 1432 1431 1431 1430 1430 1429 1429 1428 1428 1428 1428 1428
1474 1473 1472 1471 1469 1468 1467 1466 1464 1462 1461 1459 1458 1456 1455 1453 1451 1450 1448 1447 1445 1444 1442 1441 1440 1438 1437 1435 1434 1433 1432 1431 1430 1429 1429 1428 1427 1427 1427 1426 1426 1426 1425 1425
1471 1470 1469 1468 1467 1466 1464 1463 1461 1460 1458 1456 1455 1454 1452 1450 1449 1447 1446 1444 1443 1441 1440 1439 1437 1436 1435 1433 1432 1431 1430 1429 1428 1427 1427 1426 1425 1425 1424 1424 1424 1423 1423 1423
1468 1467 1466 1465 1464 1463 1462 1460 1458 1457 1455 1453 1452 1450 1449 1447 1446 1444 1443 1441 1440 1439 1438 1436 1435 1434 1432 1431 1430 1429 1428 1427 1426 1425 1424 1423 1423 1423 1422 1421 1421 1421 1420 1420